NOAA 16 DEB, 41245

Orbit data source: Space-Track

NOAA 16 DEB, 41245 is space debris in SSO originally from a launch on Thu, 21 Sep 2000 UTC launched from the Air Force Western Test Range (AFWTR). Debris objects in space refer to the collection of defunct objects orbiting the Earth. Examples of debris include non-operational satellites, rocket bodies, and fragments generated from explosions, collisions, or faulty payload assembly.

Loading next visibility...
Identifier
41245, 2000-055EV
Orbit
SSO
Country
Flag of USUS
Related business
Manufacturer
Unknown
Mission
Spacecraft
Bus & Motor
Unknown
Mass
Unknown
Launch date (UTC)
2000-09-21 (26 years ago)
Launch vehicle
Unknown
Launch site
Air Force Western Test Range (AFWTR)
Object type
Payload
Rocket body
Debris
Shape & HBR
Unknown shape, 0.1 m
Radar Cross Section
Small (<0.1 m²)

Expand to show TLE details & history
Last TLE update: 6 days ago

TLE from 6 days ago
0 NOAA 16 DEB
1 41245U 00055EV  26167.28204536  .00001546  00000-0  74373-3 0  9991
2 41245  98.5177 189.2227 0016443  91.6072 268.6989 14.20136851538486
Epoch: 2026-06-16T06:46Z
TLE epoch observation values (Epoch: 2026-06-16T06:46:08.719Z)
Latitude
0.00002°
Longitude
-176.86995°
Altitude
828.099 km
Speed
7.439 km/s
True Right ascension
12h 36m 53s
True Declination
0° 00' 00"
Sunlit
Object was in daylight at epoch
Visualization orbit readout
Latitude
Unknown
Longitude
Unknown
Altitude
Unknown
Speed
Unknown
Apparent Right ascension
Unknown
Apparent Declination
Unknown
Sunlit
N/A
Visualization observer readout
Local Sidereal Time
23:18:57
Azimuth
Unknown
Elevation
Unknown
Doppler factor
Unknown
Orbital elements
Apogee altitude
833.879 km
Perigee altitude
810.2 km
Semi-major axis
7,200.176 km
Eccentricity
0.00164
Inclination
98.5177°
RAAN
189.2227°
Arg. of periapsis
91.6072°
True anomaly
268.51053°
Mean anomaly
268.6989°
Eccentric anomaly
268.60472°
Mean motion
3.55245 °/min
Orbital period
101.34 mins
BSTAR
0.00074373
Loading maneuver chart data...
Computing Atmospheric mass density...
Loading historical data...
Loading historical data...
Loading historical data...
Loading historical data...
Loading historical data...
Loading historical data...
Loading historical data...

Documentation

Showing up to 5 results
|